This is the latest recevied weather packets stored in our database for station/object WAYLND-WX. If no packets are shown the sender has not sent any weather packets the latest 10 day(s).
| Time | Temp. | Humidity | Pressure | Rain* | Wind** | Luminosity | Snow |
|---|---|---|---|---|---|---|---|
| 1777923067 | 22.78° C | 32% | 973.9 hPa | 0 mm | - | - | - |
| 1777922149 | 22.78° C | 32% | 973.9 hPa | 0 mm | - | - | - |
| 1777921277 | 22.78° C | 32% | 973.9 hPa | 0 mm | - | - | - |
| 1777920344 | 22.78° C | 25% | 975.1 hPa | 0 mm | - | - | - |
| 1777919469 | 22.78° C | 27% | 974.7 hPa | 0 mm | - | - | - |
| 1777918548 | 22.78° C | 27% | 974.7 hPa | 0 mm | - | - | - |
| 1777917685 | 22.22° C | 27% | 974.7 hPa | 0 mm | - | - | - |
| 1777916747 | 22.22° C | 34% | 975.7 hPa | 0 mm | - | - | - |
| 1777915864 | 22.22° C | 31% | 975.4 hPa | 0 mm | - | - | - |
| 1777914947 | 21.67° C | 31% | 975.4 hPa | 0 mm | - | - | - |
| 1777914074 | 21.11° C | 32% | 975.2 hPa | 0 mm | - | - | - |
| 1777913147 | 21.11° C | 46% | 975.7 hPa | 0 mm | - | - | - |
| 1777912261 | 20.56° C | 46% | 975.7 hPa | 0 mm | - | - | - |
| 1777911347 | 20° C | 46% | 975.7 hPa | 0 mm | - | - | - |
| 1777910480 | 19.44° C | 46% | 975.7 hPa | 0 mm | - | - | - |
| 1777909547 | 18.89° C | 58% | 976.3 hPa | 0 mm | - | - | - |
| 1777908663 | 18.33° C | 58% | 976.3 hPa | 0 mm | - | - | - |
| 1777907748 | 17.78° C | 58% | 976.3 hPa | 0 mm | - | - | - |
| 1777906883 | 17.22° C | 58% | 976.3 hPa | 0 mm | - | - | - |
| 1777905947 | 16.67° C | 63% | 976.4 hPa | 0 mm | - | - | - |
| 1777905065 | 16.11° C | 67% | 977.1 hPa | 0 mm | - | - | - |
| 1777904142 | 15.56° C | 67% | 977.1 hPa | 0 mm | - | - | - |
| 1777903287 | 15° C | 63% | 976.3 hPa | 0 mm | - | - | - |
| 1777902346 | 14.44° C | 67% | 976.3 hPa | 0 mm | - | - | - |
| 1777901464 | 13.33° C | 67% | 976.2 hPa | 0 mm | - | - | - |
* Rain latest hour (hover to see other rain measurements)
** Current wind speed in m/s (hover to see current wind gust speed)